Location: Krasnoyarskiy Pitomnik
(51.1333°N, 71.6167°E)
Time: 09:37:51
(UTC+00:00)

Cosmos 1626 Rocket - Pass Details

Date: 22 October 2021
Orbit: 603 x 630 km, 82.5° (Epoch: 06 December)

Event Time Altitude Azimuth Distance (km) Brightness Sun altitude
Rises 12:53:29 0° 356° (N) 2,876 6.9 -8.0°
Reaches altitude 10° 12:55:55 10° 7° (N) 1,965 6.0 -8.4°
Maximum altitude 12:59:49 31° 70° (ENE) 1,061 4.2 -9.0°
Drops below altitude 10° 13:03:40 10° 134° (SE) 1,949 5.7 -9.6°
Sets 13:06:04 0° 145° (SE) 2,848 6.7 -10.0°
